CW3081 Weather Reports


Display with metric or nautical units.
time (UTC)temp
F
wind
direction
speed
MPH
gust
MPH
rain 1hr
in
rain 24hr
in
rain mn
in
humidity
%
barometer
mb
20260904173057 94 2 0.0 2.0 0.00 0.00 0.00 58 1016.5
20260904171558 93 0 0.0 1.0 0.00 0.00 0.00 64 1016.7
20260904170054 93 0 0.0 0.0 0.00 0.00 0.00 65 1017.0
20260904164600 92 0 0.0 1.0 0.00 0.00 0.00 70 1017.1
20260904163055 91 0 0.0 1.0 0.00 0.00 0.00 68 1017.2
20260904161551 90 0 0.0 1.0 0.00 0.00 0.00 73 1017.3
20260904160053 89 0 0.0 0.0 0.00 0.00 0.00 74 1017.3
20260904154600 88 0 0.0 0.0 0.00 0.00 0.00 75 1017.3
20260904153054 87 0 0.0 0.0 0.00 0.00 0.00 78 1017.3
20260904151551 86 0 0.0 0.0 0.00 0.00 0.00 79 1017.3
20260904150054 85 0 0.0 1.0 0.00 0.00 0.00 82 1017.3
20260904144601 84 0 0.0 0.0 0.00 0.00 0.00 84 1017.2
20260904143052 0 0.0 0.0 0.00 0.00 0.00 1017.1
20260904141605 0 0.0 0.0 0.00 0.00 0.00 1017.1
20260904140106 0 0.0 0.0 0.00 0.00 0.00 1017.1
20260904134605 0 0.0 0.0 0.00 0.00 0.00 1017.0
20260904133055 0 0.0 0.0 0.00 0.00 0.00 1017.1
20260904131558 0 0.0 0.0 0.00 0.00 0.00 1016.9
20260904130059 0 0.0 0.0 0.00 0.00 0.00 1016.7
20260904124559 0 0.0 0.0 0.00 0.00 0.00 1016.8
20260904123058 0 0.0 0.0 0.00 0.00 0.00 1016.5
20260904121552 0 0.0 0.0 0.00 0.00 0.00 1016.4
20260904120056 0 0.0 0.0 0.00 0.00 0.00 1016.3
20260904114559 0 0.0 0.0 0.00 0.00 0.00 1016.2
20260904113052 0 0.0 0.0 0.00 0.00 0.00 1015.9
20260904111553 0 0.0 0.0 0.00 0.00 0.00 1015.7
20260904110107 0 0.0 0.0 0.00 0.00 0.00 1015.7
20260904104549 0 0.0 0.0 0.00 0.00 0.00 1015.7
20260904103058 0 0.0 0.0 0.00 0.00 0.00 1015.7
20260904101552 0 0.0 0.0 0.00 0.00 0.00 1015.5
20260904100057 0 0.0 0.0 0.00 0.00 0.00 1015.5
20260904094601 0 0.0 0.0 0.00 0.00 0.00 1015.5
20260904093057 74 0 0.0 0.0 0.00 0.00 0.00 96 1015.5
20260904091552 74 0 0.0 0.0 0.00 0.00 0.00 96 1015.4
20260904084559 74 0 0.0 0.0 0.00 0.00 0.00 95 1015.4
20260904083054 74 0 0.0 0.0 0.00 0.00 0.00 96 1015.3
20260904081552 75 0 0.0 0.0 0.00 0.00 0.00 95 1015.2
20260904080051 75 0 0.0 0.0 0.00 0.00 0.00 95 1015.2
20260904074609 75 0 0.0 0.0 0.00 0.00 0.00 95 1015.3
20260904073058 75 0 0.0 0.0 0.00 0.00 0.00 95 1015.3
20260904071552 75 0 0.0 0.0 0.00 0.00 0.00 95 1015.3
20260904070052 75 0 0.0 0.0 0.00 0.00 0.00 95 1015.3
20260904064557 76 0 0.0 0.0 0.00 0.00 0.00 95 1015.3
20260904063102 76 0 0.0 0.0 0.00 0.00 0.00 95 1015.4
20260904061551 76 0 0.0 0.0 0.00 0.00 0.00 95 1015.4
20260904060106 76 0 0.0 0.0 0.00 0.00 0.00 95 1015.5
20260904054557 76 0 0.0 0.0 0.00 0.00 0.00 94 1015.6
20260904053054 76 0 0.0 0.0 0.00 0.00 0.00 94 1015.5
20260904051609 77 0 0.0 0.0 0.00 0.00 0.00 94 1015.5
20260904050104 77 0 0.0 0.0 0.00 0.00 0.00 94 1015.6
20260904044556 77 0 0.0 0.0 0.00 0.00 0.00 94 1015.7
20260904043052 77 0 0.0 0.0 0.00 0.00 0.00 93 1015.9
20260904041602 78 0 0.0 0.0 0.00 0.00 0.00 94 1015.8
20260904040106 78 0 0.0 0.0 0.00 0.00 0.00 93 1015.8
20260904034556 78 0 0.0 0.0 0.00 0.00 0.00 93 1015.8
20260904033052 79 0 0.0 0.0 0.00 0.00 0.00 93 1016.1
20260904031557 79 0 0.0 0.0 0.00 0.00 0.00 92 1016.0
20260904030100 79 0 0.0 0.0 0.00 0.00 0.00 92 1016.0
20260904024552 79 0 0.0 0.0 0.00 0.00 0.00 91 1016.0
20260904023050 79 0 0.0 0.0 0.00 0.00 0.00 90 1016.0
20260904021549 80 0 0.0 0.0 0.00 0.00 0.00 90 1015.8
20260904020100 80 0 0.0 1.0 0.00 0.00 0.00 90 1015.6
20260904014607 81 0 0.0 0.0 0.00 0.00 0.00 89 1015.6
20260904013050 81 0 0.0 0.0 0.00 0.00 0.00 88 1015.6
20260904011551 82 0 0.0 0.0 0.00 0.00 0.00 87 1015.2
20260904010115 82 0 0.0 0.0 0.00 0.00 0.00 86 1015.1
20260904004556 83 0 0.0 0.0 0.00 0.00 0.00 85 1015.1
20260904003106 84 0 0.0 0.0 0.00 0.00 0.00 84 1014.9
20260904001603 85 0 0.0 0.0 0.00 0.00 0.00 82 1014.9
20260904000100 86 0 0.0 0.0 0.00 0.00 0.00 80 1014.9
20260903234558 87 0 0.0 0.0 0.00 0.00 0.00 79 1014.9
20260903233103 88 0 0.0 0.0 0.00 0.00 0.00 78 1014.8
20260903231603 89 0 0.0 0.0 0.00 0.00 0.00 74 1014.7
20260903230100 90 0 0.0 0.0 0.00 0.00 0.00 70 1014.4
20260903224555 91 0 0.0 0.0 0.00 0.00 0.00 66 1014.3
20260903223052 91 0 0.0 0.0 0.00 0.00 0.00 67 1014.4
20260903221600 92 0 0.0 0.0 0.00 0.00 0.00 66 1014.4
20260903220057 92 0 0.0 0.0 0.00 0.00 0.00 64 1014.4
20260903214558 92 0 0.0 1.0 0.00 0.00 0.00 61 1014.5
20260903213056 92 0 0.0 0.0 0.00 0.00 0.00 62 1014.6
20260903211550 92 0 0.0 0.0 0.00 0.00 0.00 62 1014.8
20260903210117 92 0 0.0 0.0 0.00 0.00 0.00 60 1015.1
20260903204617 91 0 0.0 0.0 0.00 0.00 0.00 67 1015.2
20260903203053 90 0 0.0 0.0 0.00 0.00 0.00 68 1015.3
20260903201559 91 0 0.0 0.0 0.00 0.00 0.00 72 1015.6
20260903200057 92 0 0.0 0.0 0.00 0.00 0.00 66 1015.6
20260903194552 91 0 0.0 0.0 0.00 0.00 0.00 62 1015.8
20260903193053 92 0 0.0 0.0 0.00 0.00 0.00 63 1016.0
20260903191554 92 0 0.0 0.0 0.00 0.00 0.00 65 1016.1
20260903190050 93 0 0.0 1.0 0.00 0.00 0.00 65 1016.4
20260903184600 94 0 0.0 0.0 0.00 0.00 0.00 56 1016.3
20260903183059 95 0 0.0 1.0 0.00 0.00 0.00 57 1016.4
20260903181554 95 18 1.0 2.0 0.00 0.00 0.00 58 1016.5
20260903180052 94 31 0.0 2.0 0.00 0.00 0.00 55 1016.7
20260903174601 94 0 0.0 1.0 0.00 0.00 0.00 57 1016.9